Simultaneous Nadir Overpasses (SNOs) Predictions

Prediction of SNOs between NOAA-19 and TERRA Satellite Orbit:

Table of predicted SNOs for the next 14.0 days since TLE Epoch: 9/26/2020
Index Date (NOAA-19) Time (NOAA-19) Lat,Lon (NOAA-19) SZA (NOAA-19 ) Date (TERRA) Time (TERRA) Lat,Lon (TERRA) SZA (TERRA ) Distance(km) Time Diff (sec)
1 09/26/2020 05:39:35 -79.74, -55.03 97.31 09/26/2020 05:39:48 -79.75, -54.90 97.29 2.57 13
2 09/28/2020 11:12:56 79.76, 41.55 83.58 09/28/2020 11:13:32 79.74, 41.58 83.58 2.35 36
3 09/28/2020 12:03:50 -79.73,-150.84 96.40 09/28/2020 12:02:59 -79.74,-150.78 96.41 1.76 51
4 09/30/2020 16:46:06 -79.75, 138.38 95.53 09/30/2020 16:47:16 -79.76, 138.31 95.51 1.58 70
5 09/30/2020 17:37:10 79.73, -54.08 84.49 09/30/2020 17:36:42 79.76, -54.05 84.51 3.58 28
6 10/02/2020 23:10:21 -79.74, 42.55 94.63 10/02/2020 23:10:27 -79.74, 42.41 94.64 2.90 6
7 10/05/2020 04:43:40 79.76, 139.05 86.25 10/05/2020 04:44:09 79.76, 139.08 86.26 0.81 29
8 10/05/2020 05:34:36 -79.75, -53.58 93.74 10/05/2020 05:33:37 -79.73, -53.50 93.78 3.18 59
9 10/07/2020 10:16:51 -79.76,-124.07 92.88 10/07/2020 10:17:53 -79.78,-124.18 92.84 3.53 62
10 10/07/2020 11:07:55 79.76, 43.06 87.14 10/07/2020 11:07:20 79.74, 43.14 87.11 3.29 35
